| time (UTC) | temp F | wind direction | speed MPH | gust MPH | rain 1hr in | rain 24hr in | rain mn in | humidity % | barometer mb |
| 20260506033041 | 55 | 323 | 1.0 | 9.0 | 0.00 | 0.00 | 0.00 | 36 | 1027.4 |
| 20260506031543 | 55 | 205 | 1.0 | 12.0 | 0.00 | 0.00 | 0.00 | 36 | 1027.3 |
| 20260506030040 | 55 | 160 | 1.0 | 13.0 | 0.00 | 0.00 | 0.00 | 36 | 1027.1 |
| 20260506024538 | 56 | 210 | 2.0 | 11.0 | 0.00 | 0.00 | 0.00 | 35 | 1026.9 |
| 20260506023054 | 56 | 180 | 4.0 | 11.0 | 0.00 | 0.00 | 0.00 | 33 | 1027.0 |
| 20260506021535 | 56 | 212 | 2.0 | 14.0 | 0.00 | 0.00 | 0.00 | 33 | 1026.8 |
| 20260506020035 | 56 | 218 | 2.0 | 13.0 | 0.00 | 0.00 | 0.00 | 33 | 1026.5 |
| 20260506014534 | 56 | 249 | 3.0 | 10.0 | 0.00 | 0.00 | 0.00 | 34 | 1026.2 |
| 20260506013003 | 56 | 206 | 0.0 | 8.0 | 0.00 | 0.00 | 0.00 | 34 | 1025.9 |
| 20260506011502 | 56 | 205 | 2.0 | 8.0 | 0.00 | 0.00 | 0.00 | 35 | 1025.7 |
| 20260506010104 | 57 | 207 | 1.0 | 13.0 | 0.00 | 0.00 | 0.00 | 35 | 1025.7 |
| 20260506004627 | 57 | 205 | 4.0 | 12.0 | 0.00 | 0.00 | 0.00 | 36 | 1025.7 |
| 20260506003111 | 57 | 248 | 3.0 | 13.0 | 0.00 | 0.00 | 0.00 | 35 | 1025.7 |
| 20260506001558 | 57 | 204 | 3.0 | 11.0 | 0.00 | 0.00 | 0.00 | 36 | 1025.4 |
| 20260506000057 | 58 | 236 | 5.0 | 11.0 | 0.00 | 0.00 | 0.00 | 38 | 1025.2 |
| 20260505234627 | 58 | 248 | 4.0 | 12.0 | 0.00 | 0.00 | 0.00 | 38 | 1025.0 |
| 20260505233102 | 58 | 247 | 6.0 | 16.0 | 0.00 | 0.00 | 0.00 | 39 | 1024.9 |
| 20260505231554 | 57 | 196 | 4.0 | 18.0 | 0.00 | 0.00 | 0.00 | 46 | 1025.0 |
| 20260505230051 | 57 | 224 | 2.0 | 9.0 | 0.00 | 0.00 | 0.00 | 49 | 1025.2 |
| 20260505224551 | 56 | 307 | 2.0 | 11.0 | 0.00 | 0.00 | 0.00 | 50 | 1025.3 |
| 20260505223051 | 57 | 205 | 4.0 | 11.0 | 0.00 | 0.00 | 0.00 | 48 | 1025.2 |
| 20260505221550 | 57 | 200 | 3.0 | 14.0 | 0.00 | 0.00 | 0.00 | 48 | 1025.2 |
| 20260505220101 | 58 | 200 | 4.0 | 19.0 | 0.00 | 0.00 | 0.00 | 47 | 1025.1 |
| 20260505214549 | 60 | 219 | 2.0 | 10.0 | 0.00 | 0.00 | 0.00 | 45 | 1025.1 |
| 20260505213047 | 60 | 212 | 4.0 | 12.0 | 0.00 | 0.00 | 0.00 | 44 | 1025.2 |
| 20260505211551 | 59 | 209 | 3.0 | 10.0 | 0.00 | 0.00 | 0.00 | 46 | 1025.4 |
| 20260505210046 | 60 | 240 | 4.0 | 15.0 | 0.00 | 0.00 | 0.00 | 45 | 1025.5 |
| 20260505204545 | 61 | 210 | 4.0 | 12.0 | 0.00 | 0.00 | 0.00 | 45 | 1025.5 |
| 20260505203042 | 59 | 212 | 4.0 | 16.0 | 0.00 | 0.00 | 0.00 | 44 | 1025.8 |
| 20260505201542 | 58 | 160 | 4.0 | 15.0 | 0.00 | 0.00 | 0.00 | 47 | 1026.0 |
| 20260505200041 | 59 | 171 | 4.0 | 14.0 | 0.00 | 0.00 | 0.00 | 46 | 1026.2 |
| 20260505194542 | 59 | 219 | 5.0 | 15.0 | 0.00 | 0.00 | 0.00 | 46 | 1026.2 |
| 20260505193044 | 59 | 210 | 3.0 | 15.0 | 0.00 | 0.00 | 0.00 | 47 | 1025.9 |
| 20260505191550 | 58 | 229 | 2.0 | 12.0 | 0.00 | 0.00 | 0.00 | 48 | 1026.0 |
| 20260505190035 | 58 | 184 | 5.0 | 16.0 | 0.00 | 0.00 | 0.00 | 48 | 1025.9 |
| 20260505184503 | 59 | 229 | 6.0 | 17.0 | 0.00 | 0.00 | 0.00 | 45 | 1026.2 |
| 20260505183007 | 60 | 208 | 4.0 | 10.0 | 0.00 | 0.00 | 0.00 | 43 | 1026.2 |
| 20260505181600 | 59 | 218 | 2.0 | 13.0 | 0.00 | 0.00 | 0.00 | 43 | 1026.1 |
| 20260505174611 | 59 | 212 | 4.0 | 10.0 | 0.00 | 0.00 | 0.00 | 41 | 1026.6 |
| 20260505173053 | 56 | 165 | 4.0 | 12.0 | 0.00 | 0.00 | 0.00 | 46 | 1026.8 |
| 20260505171529 | 54 | 218 | 4.0 | 11.0 | 0.00 | 0.00 | 0.00 | 52 | 1026.9 |
| 20260505170027 | 58 | 205 | 5.0 | 9.0 | 0.00 | 0.00 | 0.00 | 40 | 1026.6 |
| 20260505164520 | 58 | 202 | 5.0 | 12.0 | 0.00 | 0.00 | 0.00 | 40 | 1026.6 |
| 20260505163021 | 57 | 146 | 3.0 | 10.0 | 0.00 | 0.00 | 0.00 | 42 | 1026.8 |
| 20260505161518 | 57 | 204 | 2.0 | 10.0 | 0.00 | 0.00 | 0.00 | 43 | 1026.5 |
| 20260505153017 | 55 | 230 | 1.0 | 10.0 | 0.00 | 0.00 | 0.00 | 45 | 1026.2 |
| 20260505151513 | 54 | 236 | 4.0 | 13.0 | 0.00 | 0.00 | 0.00 | 44 | 1026.0 |
| 20260505124523 | 0 | 0.0 | 0.0 | 0.00 | 0.00 | 0.00 | 1024.1 | ||
| 20260505123022 | 0 | 0.0 | 0.0 | 0.00 | 0.00 | 0.00 | 1024.1 | ||
| 20260505121544 | 0 | 0.0 | 0.0 | 0.00 | 0.00 | 0.00 | 1023.9 | ||
| 20260505120040 | 0 | 0.0 | 0.0 | 0.00 | 0.00 | 0.00 | 1024.0 | ||
| 20260505114506 | 54 | 244 | 4.0 | 17.0 | 0.00 | 0.00 | 0.00 | 37 | 1024.3 |
| 20260505113005 | 55 | 168 | 3.0 | 21.0 | 0.00 | 0.00 | 0.00 | 40 | 1024.1 |
| 20260505111609 | 55 | 259 | 3.0 | 16.0 | 0.00 | 0.00 | 0.00 | 40 | 1024.1 |
| 20260505101518 | 55 | 254 | 4.0 | 15.0 | 0.00 | 0.00 | 0.00 | 41 | 1025.1 |
| 20260505100015 | 55 | 195 | 4.0 | 15.0 | 0.00 | 0.00 | 0.00 | 40 | 1025.2 |
| 20260505094547 | 55 | 160 | 4.0 | 15.0 | 0.00 | 0.00 | 0.00 | 41 | 1025.4 |
| 20260505093041 | 56 | 266 | 5.0 | 15.0 | 0.00 | 0.00 | 0.00 | 40 | 1025.1 |
| 20260505080027 | 56 | 240 | 1.0 | 12.0 | 0.00 | 0.00 | 0.00 | 41 | 1027.2 |
| 20260505074509 | 56 | 251 | 1.0 | 7.0 | 0.00 | 0.00 | 0.00 | 40 | 1027.1 |
| 20260505073108 | 57 | 209 | 1.0 | 8.0 | 0.00 | 0.00 | 0.00 | 39 | 1027.4 |
| 20260505071504 | 57 | 209 | 3.0 | 9.0 | 0.00 | 0.00 | 0.00 | 38 | 1027.4 |
| 20260505070100 | 58 | 262 | 2.0 | 15.0 | 0.00 | 0.00 | 0.00 | 37 | 1027.1 |
| 20260505064603 | 58 | 195 | 3.0 | 13.0 | 0.00 | 0.00 | 0.00 | 34 | 1026.9 |
| 20260505063057 | 58 | 205 | 6.0 | 13.0 | 0.00 | 0.00 | 0.00 | 32 | 1026.9 |
| 20260505060028 | 57 | 229 | 2.0 | 10.0 | 0.00 | 0.00 | 0.00 | 33 | 1027.3 |
| 20260505054521 | 58 | 243 | 2.0 | 7.0 | 0.00 | 0.00 | 0.00 | 34 | 1027.6 |
| 20260505053021 | 58 | 227 | 2.0 | 6.0 | 0.00 | 0.00 | 0.00 | 33 | 1028.1 |
| 20260505051640 | 59 | 193 | 2.0 | 7.0 | 0.00 | 0.00 | 0.00 | 31 | 1028.6 |
| 20260505041524 | 60 | 221 | 2.0 | 7.0 | 0.00 | 0.00 | 0.00 | 26 | 1029.2 |
| 20260505040013 | 60 | 190 | 1.0 | 6.0 | 0.00 | 0.00 | 0.00 | 26 | 1029.4 |
| 20260505034510 | 60 | 212 | 1.0 | 6.0 | 0.00 | 0.00 | 0.00 | 26 | 1029.6 |